This is the latest recevied weather packets stored in our database for station/object KR8N. If no packets are shown the sender has not sent any weather packets the latest 10 day(s).
| Time | Temp. | Humidity | Pressure | Rain* | Wind** | Luminosity | Snow |
|---|---|---|---|---|---|---|---|
| 1777416033 | 21.67° C | 59% | 1018.3 hPa | 0 mm | - | 148 W/m² | - |
| 1777415729 | 21.67° C | 55% | 1018.2 hPa | 0 mm | - | 68 W/m² | - |
| 1777415426 | 21.11° C | 57% | 1018.4 hPa | 0 mm | - | 192 W/m² | - |
| 1777415125 | 22.22° C | 55% | 1018.5 hPa | 0 mm | - | 63 W/m² | - |
| 1777414821 | 22.22° C | 57% | 1018.8 hPa | 0 mm | - | 220 W/m² | - |
| 1777414516 | 21.67° C | 54% | 1019 hPa | 0 mm | - | 260 W/m² | - |
| 1777414215 | 22.22° C | 57% | 1018.8 hPa | 0 mm | - | 278 W/m² | - |
| 1777413911 | 21.67° C | 59% | 1018.7 hPa | 0 mm | - | 320 W/m² | - |
| 1777413606 | 22.22° C | 58% | 1019 hPa | 0 mm | - | 81 W/m² | - |
| 1777413303 | 21.67° C | 59% | 1019.2 hPa | 0 mm | - | 356 W/m² | - |
| 1777412999 | 21.11° C | 63% | 1019.3 hPa | 0 mm | - | 364 W/m² | - |
| 1777412698 | 21.11° C | 63% | 1019.2 hPa | 0 mm | - | 166 W/m² | - |
| 1777412396 | 20.56° C | 61% | 1019.2 hPa | 0 mm | - | 157 W/m² | - |
| 1777412095 | 21.11° C | 63% | 1019 hPa | 0 mm | - | 138 W/m² | - |
| 1777411791 | 22.22° C | 60% | 1019.1 hPa | 0 mm | - | 172 W/m² | - |
| 1777411490 | 22.22° C | 61% | 1019.2 hPa | 0 mm | - | 453 W/m² | - |
| 1777411190 | 21.67° C | 62% | 1019.2 hPa | 0 mm | - | 384 W/m² | - |
| 1777410885 | 21.11° C | 63% | 1019.1 hPa | 0 mm | - | 494 W/m² | - |
| 1777410585 | 20.56° C | 65% | 1019.3 hPa | 0 mm | - | 191 W/m² | - |
| 1777410285 | 20.56° C | 64% | 1019.5 hPa | 0 mm | - | 390 W/m² | - |
| 1777409980 | 20.56° C | 63% | 1019.2 hPa | 0 mm | - | 153 W/m² | - |
| 1777409674 | 21.11° C | 62% | 1018.9 hPa | 0 mm | - | 86 W/m² | - |
| 1777409371 | 21.67° C | 60% | 1018.9 hPa | 0 mm | - | 143 W/m² | - |
| 1777409067 | 22.78° C | 58% | 1018.9 hPa | 0 mm | - | 176 W/m² | - |
| 1777408764 | 21.67° C | 60% | 1018.9 hPa | 0 mm | - | 613 W/m² | - |
* Rain latest hour (hover to see other rain measurements)
** Current wind speed in m/s (hover to see current wind gust speed)